Tracking 28052 objects as of 23-Sep-2023
HD Live streaming from Space Station
objects crossing your sky now

SL-6 R/B(2)

Track SL-6 R/B(2) now!
10-day predictions


NORAD ID: 16996
Int'l Code: 1986-075D
Perigee: 177.3 km
Apogee: 13,646.2 km
Inclination: 62.1 °
Period: 253.9 minutes
Semi major axis: 13282 km
RCS: 5.6254 m2 (large)
Launch date: October 3, 1986
Source: Commonwealth of Independent States (former USSR) (CIS)
Launch site: PLESETSK MISSILE AND SPACE COMPLEX (PKMTR)

Note: This is a ROCKET BODY
Your satellite tracking list
Your tracking list is empty




NASA's NSSDC Master Catalog

Two Line Element Set (TLE):
1 16996U 86075D   23265.19928763  .00047042 -52161-6  32955-3 0  9996
2 16996  62.1373 165.5617 5070081 284.0732  26.5460  5.67114703549402
Source of the keplerian elements: AFSPC